This is the latest recevied weather packets stored in our database for station/object KC0AFB. If no packets are shown the sender has not sent any weather packets the latest 10 day(s).
| Time | Temp. | Humidity | Pressure | Rain* | Wind** | Luminosity | Snow |
|---|---|---|---|---|---|---|---|
| 1778183449 | 15.56° C | 31% | 1010.2 hPa | 0 mm | - | 698 W/m² | - |
| 1778183145 | 15.56° C | 32% | 1010.3 hPa | 0 mm | - | 673 W/m² | - |
| 1778182841 | 15.56° C | 32% | 1010.4 hPa | 0 mm | - | 649 W/m² | - |
| 1778182538 | 15° C | 29% | 1010.1 hPa | 0 mm | - | 647 W/m² | - |
| 1778182235 | 15° C | 32% | 1010.4 hPa | 0 mm | - | 650 W/m² | - |
| 1778181931 | 15° C | 28% | 1010.5 hPa | 0 mm | - | 655 W/m² | - |
| 1778181628 | 15° C | 28% | 1010.3 hPa | 0 mm | - | 642 W/m² | - |
| 1778181323 | 15° C | 28% | 1010.2 hPa | 0 mm | - | 590 W/m² | - |
| 1778181021 | 15° C | 31% | 1010.1 hPa | 0 mm | - | 660 W/m² | - |
| 1778180718 | 15° C | 32% | 1010.3 hPa | 0 mm | - | 685 W/m² | - |
| 1778180417 | 15° C | 30% | 1010.5 hPa | 0 mm | - | 672 W/m² | - |
| 1778180115 | 15° C | 30% | 1010.5 hPa | 0 mm | - | 684 W/m² | - |
| 1778179811 | 15° C | 32% | 1010.5 hPa | 0 mm | - | 691 W/m² | - |
| 1778179509 | 15° C | 31% | 1010.4 hPa | 0 mm | - | 659 W/m² | - |
| 1778179207 | 15° C | 30% | 1010.5 hPa | 0 mm | - | 721 W/m² | - |
| 1778178902 | 15° C | 33% | 1010.3 hPa | 0 mm | - | 704 W/m² | - |
| 1778178600 | 14.44° C | 31% | 1010.7 hPa | 0 mm | - | 701 W/m² | - |
| 1778178296 | 14.44° C | 31% | 1010.7 hPa | 0 mm | - | 625 W/m² | - |
| 1778177992 | 13.89° C | 30% | 1010.8 hPa | 0 mm | - | 681 W/m² | - |
| 1778177689 | 15° C | 31% | 1010.8 hPa | 0 mm | - | 707 W/m² | - |
| 1778177385 | 14.44° C | 31% | 1010.8 hPa | 0 mm | - | 727 W/m² | - |
| 1778177082 | 14.44° C | 32% | 1010.9 hPa | 0 mm | - | 695 W/m² | - |
| 1778176778 | 13.89° C | 32% | 1010.9 hPa | 0 mm | - | 743 W/m² | - |
| 1778176475 | 13.89° C | 33% | 1011.2 hPa | 0 mm | - | 755 W/m² | - |
| 1778176173 | 14.44° C | 33% | 1011.1 hPa | 0 mm | - | 748 W/m² | - |
* Rain latest hour (hover to see other rain measurements)
** Current wind speed in m/s (hover to see current wind gust speed)